Location: Diebersbach
(48.5163°N, 8.0558°E)
Time: 04:23:32
(UTC+00:00)

USA 229 - Pass Details

Date: 25 October 2021
Orbit: 946 x 1266 km, 63.4° (Epoch: 25 November)

Event Time Altitude Azimuth Distance (km) Brightness Sun altitude
Rises 20:22:48 0° 266° (W) 3,706 7.2 -39.8°
Reaches altitude 10° 20:25:41 10° 277° (W) 2,799 6.5 -40.2°
Enters shadow 20:31:25 31° 338° (NNW) 1,788 5.1 -41.0°
